Cecil Field, FL

7:02 PM EST on November 21, 2017 (GMT -0500)
Cecil

Weather History for KVQQ - December, 2012

Change the Weather History Date:

Wednesday, December 19, 2012

  Actual Average (KNIP) Record (KNIP)
Temperature  
Mean Temperature 52 °F -  
Max Temperature 71 °F 62 °F 78 °F (2008)
Min Temperature 32 °F 45 °F 28 °F (2000)
Degree Days  
Heating Degree Days 14    
Growing Degree Days 2 (Base 50)    
Moisture  
Dew Point 39 °F    
Average Humidity 88    
Maximum Humidity 100    
Minimum Humidity 27    
Precipitation  
Precipitation 0.00 in - - ()
Sea Level Pressure  
Sea Level Pressure 30.09 in    
Wind  
Wind Speed 0 mph (North)    
Max Wind Speed 0 mph    
Max Gust Speed -    
Visibility 9 miles    
Events      
Averages and records for this station are not official NWS values.
T = Trace of Precipitation, MM = Missing Value Source: NWS Daily Summary

Daily Weather History Graph

Daily Weather History Graph

Search for Another Location

Airport or City:

Trip Planner

Search our weather history database for the weather conditions in past years. The results will help you decide how hot, cold, wet, or windy it might be!

Date:

Astronomy

Dec. 19, 2012 Rise Set
Actual Time 7:18 AM EST 5:30 PM EST
Civil Twilight 6:52 AM EST 5:57 PM EST
Nautical Twilight 6:22 AM EST 6:27 PM EST
Astronomical Twilight 5:53 AM EST 6:56 PM EST
Moon 11:54 AM EST (12/19) No Moon Set
Length of Visible Light 11h 04m
Length of Day
10h 11m
Waxing Crescent, 45% of the Moon is Illuminated
Dec 19
Waxing Crescent
Dec 20
First Quarter
Dec 28
Full
Jan 4
Last Quarter
Jan 11
New

Hourly Weather History & Observations

Time (EST) Temp. Dew Point Humidity Pressure Visibility Wind Dir Wind Speed Gust Speed Precip Events Conditions
12:15 AM 39.2 °F 39.2 °F 100% 30.06 in 10.0 mi Calm Calm - N/A   Clear
12:35 AM 39.2 °F 39.2 °F 100% 30.05 in 8.0 mi Calm Calm - N/A   Clear
12:55 AM 39.2 °F 39.2 °F 100% 30.06 in 10.0 mi Calm Calm - N/A   Clear
1:15 AM 37.4 °F 37.4 °F 100% 30.05 in 7.0 mi Calm Calm - N/A   Clear
1:35 AM 37.4 °F 37.4 °F 100% 30.06 in 8.0 mi Calm Calm - N/A   Clear
1:55 AM 37.4 °F 37.4 °F 100% 30.07 in 7.0 mi Calm Calm - N/A   Clear
2:15 AM 37.4 °F 37.4 °F 100% 30.06 in 7.0 mi Calm Calm - N/A   Clear
2:35 AM 35.6 °F 35.6 °F 100% 30.07 in 7.0 mi Calm Calm - N/A   Clear
2:55 AM 35.6 °F 35.6 °F 100% 30.07 in 7.0 mi Calm Calm - N/A   Clear
3:15 AM 35.6 °F 35.6 °F 100% 30.07 in 10.0 mi Calm Calm - N/A   Clear
3:35 AM 35.6 °F 35.6 °F 100% 30.07 in 8.0 mi Calm Calm - N/A   Clear
3:55 AM 35.6 °F 35.6 °F 100% 30.07 in 10.0 mi Calm Calm - N/A   Clear
4:15 AM 35.6 °F 35.6 °F 100% 30.07 in 10.0 mi Calm Calm - N/A   Clear
4:35 AM 35.6 °F 35.6 °F 100% 30.06 in 7.0 mi Calm Calm - N/A   Clear
4:55 AM 33.8 °F 33.8 °F 100% 30.07 in 10.0 mi Calm Calm - N/A   Clear
5:15 AM 33.8 °F 33.8 °F 100% 30.08 in 10.0 mi Calm Calm - N/A   Clear
5:35 AM 33.8 °F 33.8 °F 100% 30.08 in 10.0 mi Calm Calm - N/A   Clear
5:55 AM 33.8 °F 33.8 °F 100% 30.09 in 8.0 mi Calm Calm - N/A   Clear
6:15 AM 32.0 °F 32.0 °F 100% 30.09 in 10.0 mi Calm Calm - N/A   Clear
6:35 AM 32.0 °F 32.0 °F 100% 30.10 in 10.0 mi Calm Calm - N/A   Clear
6:50 AM 32.0 °F 32.0 °F 100% 30.10 in 10.0 mi Calm Calm - N/A   Clear
7:50 AM 32.0 °F 32.0 °F 100% 30.12 in 10.0 mi Calm Calm - N/A   Clear
9:50 AM 55.4 °F 44.6 °F 67% 30.15 in 10.0 mi Calm Calm - N/A   Clear
10:50 AM 62.6 °F 44.6 °F 52% 30.15 in 10.0 mi Calm Calm - N/A   Clear
11:50 AM 66.2 °F 39.2 °F 37% 30.14 in 10.0 mi Calm Calm - N/A   Clear
12:50 PM 68.0 °F 37.4 °F 33% 30.11 in 10.0 mi Calm Calm - N/A   Clear
1:50 PM 69.8 °F 39.2 °F 33% 30.10 in 10.0 mi Calm Calm - N/A   Clear
2:50 PM 71.6 °F 35.6 °F 27% 30.08 in 10.0 mi Calm Calm - N/A   Clear
3:50 PM 71.6 °F 35.6 °F 27% 30.09 in 10.0 mi Calm Calm - N/A   Clear
4:50 PM 68.0 °F 41.0 °F 37% 30.05 in 10.0 mi Calm Calm - N/A   Clear
5:50 PM 53.6 °F 48.2 °F 82% 30.08 in 10.0 mi Calm Calm - N/A   Clear
6:50 PM 48.2 °F 44.6 °F 87% 30.10 in 10.0 mi Calm Calm - N/A   Clear
7:50 PM 44.6 °F 44.6 °F 100% 30.11 in 10.0 mi Calm Calm - N/A   Clear
8:15 PM 44.6 °F 44.6 °F 100% 30.11 in 10.0 mi Calm Calm - N/A   Clear
8:35 PM 44.6 °F 44.6 °F 100% 30.12 in 10.0 mi Calm Calm - N/A   Clear
8:55 PM 42.8 °F 42.8 °F 100% 30.12 in 10.0 mi Calm Calm - N/A   Clear
9:15 PM 42.8 °F 42.8 °F 100% 30.12 in 10.0 mi Calm Calm - N/A   Clear
9:35 PM 42.8 °F 42.8 °F 100% 30.12 in 10.0 mi Calm Calm - N/A   Clear
9:55 PM 41.0 °F 41.0 °F 100% 30.12 in 10.0 mi Calm Calm - N/A   Clear
10:15 PM 41.0 °F 41.0 °F 100% 30.11 in 10.0 mi Calm Calm - N/A   Clear
10:35 PM 41.0 °F 41.0 °F 100% 30.11 in 10.0 mi Calm Calm - N/A   Clear
10:55 PM 41.0 °F 41.0 °F 100% 30.11 in 9.0 mi Calm Calm - N/A   Clear
11:15 PM 41.0 °F 41.0 °F 100% 30.11 in 9.0 mi Calm Calm - N/A   Clear
11:35 PM 41.0 °F 41.0 °F 100% 30.10 in 9.0 mi Calm Calm - N/A   Clear
11:55 PM 41.0 °F 41.0 °F 100% 30.10 in 8.0 mi Calm Calm - N/A   Clear